User: anonymous   Login
Location: Caltech
(34.1382°N, 118.1253°W)
Time: 20:04:34
(UTC-08:00)
Language:

TITAN 4B R/B - Orbit

View from above orbital plane
View from above orbital plane
View from above satellite
View from above satellite

Ground track
Ground track

The orbit data is extracted from the following two-line orbital elements,

1 28647U 05016B   15063.13419744 0.00004500  00000-0  27967-3 0    03
2 28647  56.9986 164.9936 0132577 260.2585  99.7414 15.02114278    08
Epoch (UTC): 04 March 2015 03:13:14
Eccentricity: 0.0132577
inclination: 56.9986°
perigee height: 468 km
apogee height: 652 km
right ascension of ascending node: 164.9936°
argument of perigee: 260.2585°
revolutions per day: 15.02114278
mean anomaly at epoch: 99.7414°
orbit number at epoch: 0

The dashed part of the orbit path shows where the satellite is in the earth's shadow,  

DLR